Location: Oslo
(59.9170°N, 10.7500°E)
Time: 18:30:02
(UTC+02:00)

ISS - Pass Details

Date: 30 March 2019
Orbit: 408 x 410 km, 51.6° (Epoch: 24 April)

Event Time Altitude Azimuth Distance (km) Brightness Sun altitude
Rises 20:50:08 0° 257° (WSW) 2,340 0.7 -14.1°
Reaches altitude 10° 20:52:42 10° 236° (WSW) 1,476 -0.7 -14.3°
Maximum altitude 20:54:56 17° 194° (SSW) 1,121 -1.8 -14.6°
Enters shadow 20:55:27 17° 182° (S) 1,142 -1.9 -14.6°
